{"data":{"norad_id":67555,"epoch":"2026-09-19T22:38:33.616032Z","epoch_age_seconds":120346,"freshness":"FRESH","line1":"1 67555U 26014Z   26262.94344463  .00029577  00000+0  91384-3 0  9993","line2":"2 67555  97.2838 148.3287 0001982  93.6763 266.4707 15.33481121 38545","mean_motion":15.33481121,"eccentricity":0.0001982,"inclination_deg":97.2838,"raan_deg":148.3287,"arg_perigee_deg":93.6763,"mean_anomaly_deg":266.4707,"bstar":0.00091384,"rev_number":3854,"period_min":93.903992705235,"perigee_km":464.07930979466,"apogee_km":466.79210201528,"semimajor_km":6843.572705905,"source":"CELESTRAK","updated_at":"2026-09-20T09:00:43.572792Z"}}